Location: Berlise
(49.6641°N, 4.1077°E)
Time: 02:26:55
(UTC+00:00)

Cosmos 1125 Rocket - Pass Details

Date: 27 January 2021
Orbit: 756 x 781 km, 74.0° (Epoch: 28 February)

Event Time Altitude Azimuth Distance (km) Brightness Sun altitude
Exits shadow 05:01:52 21° 340° (NNW) 1,699 5.1 -22.7°
Maximum altitude 05:05:30 79° 66° (ENE) 800 3.6 -22.1°
Drops below altitude 10° 05:10:49 10° 153° (SSE) 2,330 6.4 -21.2°
Sets 05:13:12 0° 155° (SSE) 3,254 7.2 -20.8°
